Year,Month,Day,Hour,Minute,Value (Times are PST for temperature in C)
2009,04,27,00,00,5.20
2009,04,27,00,01,5.20
2009,04,27,00,02,5.20
2009,04,27,00,03,5.20
2009,04,27,00,04,5.20
2009,04,27,00,05,5.20
2009,04,27,00,06,5.20
2009,04,27,00,07,5.10
2009,04,27,00,08,5.10
2009,04,27,00,09,5.10
2009,04,27,00,10,5.10
2009,04,27,00,11,5.10
2009,04,27,00,12,5.10
2009,04,27,00,13,5.10
2009,04,27,00,14,5.10
2009,04,27,00,15,5.10
2009,04,27,00,16,5.10
2009,04,27,00,17,5.10
2009,04,27,00,18,5.10
2009,04,27,00,19,5.10
2009,04,27,00,20,5.00
2009,04,27,00,21,5.00
2009,04,27,00,22,5.00
2009,04,27,00,23,5.00
2009,04,27,00,24,4.90
2009,04,27,00,25,4.90
2009,04,27,00,26,4.90
2009,04,27,00,27,4.90
2009,04,27,00,28,4.90
2009,04,27,00,29,4.90
2009,04,27,00,30,4.80
2009,04,27,00,31,4.80
2009,04,27,00,32,4.80
2009,04,27,00,33,4.80
2009,04,27,00,34,4.80
2009,04,27,00,35,4.80
2009,04,27,00,36,4.80
2009,04,27,00,37,4.70
2009,04,27,00,38,4.70
2009,04,27,00,39,4.70
2009,04,27,00,40,4.70
2009,04,27,00,41,4.70
2009,04,27,00,42,4.70
2009,04,27,00,43,4.70
2009,04,27,00,44,4.70
2009,04,27,00,45,4.70
2009,04,27,00,46,4.70
2009,04,27,00,47,4.60
2009,04,27,00,48,4.60
2009,04,27,00,49,4.60
2009,04,27,00,50,4.60
2009,04,27,00,51,4.60
2009,04,27,00,52,4.60
2009,04,27,00,53,4.60
2009,04,27,00,54,4.60
2009,04,27,00,55,4.50
2009,04,27,00,56,4.50
2009,04,27,00,57,4.50
2009,04,27,00,58,4.50
2009,04,27,00,59,4.50
2009,04,27,01,00,4.50
2009,04,27,01,01,4.40
2009,04,27,01,02,4.40
2009,04,27,01,03,4.40
2009,04,27,01,04,4.40
2009,04,27,01,05,4.40
2009,04,27,01,06,4.40
2009,04,27,01,07,4.40
2009,04,27,01,08,4.40
2009,04,27,01,09,4.40
2009,04,27,01,10,4.30
2009,04,27,01,11,4.30
2009,04,27,01,12,4.30
2009,04,27,01,13,4.30
2009,04,27,01,14,4.30
2009,04,27,01,15,4.30
2009,04,27,01,16,4.30
2009,04,27,01,17,4.30
2009,04,27,01,18,4.30
2009,04,27,01,19,4.30
2009,04,27,01,20,4.30
2009,04,27,01,21,4.30
2009,04,27,01,22,4.30
2009,04,27,01,23,4.20
2009,04,27,01,24,4.20
2009,04,27,01,25,4.20
2009,04,27,01,26,4.20
2009,04,27,01,27,4.20
2009,04,27,01,28,4.20
2009,04,27,01,29,4.20
2009,04,27,01,30,4.20
2009,04,27,01,31,4.20
2009,04,27,01,32,4.20
2009,04,27,01,33,4.20
2009,04,27,01,34,4.20
2009,04,27,01,35,4.20
2009,04,27,01,36,4.20
2009,04,27,01,37,4.20
2009,04,27,01,38,4.20
2009,04,27,01,39,4.20
2009,04,27,01,40,4.10
2009,04,27,01,41,4.10
2009,04,27,01,42,4.10
2009,04,27,01,43,4.10
2009,04,27,01,44,4.10
2009,04,27,01,45,4.10
2009,04,27,01,46,4.10
2009,04,27,01,47,4.10
2009,04,27,01,48,4.10
2009,04,27,01,49,4.10
2009,04,27,01,50,4.10
2009,04,27,01,51,4.10
2009,04,27,01,52,4.10
2009,04,27,01,53,4.10
2009,04,27,01,54,4.10
2009,04,27,01,55,4.10
2009,04,27,01,56,4.10
2009,04,27,01,57,4.10
2009,04,27,01,58,4.10
2009,04,27,01,59,4.10
2009,04,27,02,00,4.10
2009,04,27,02,01,4.10
2009,04,27,02,02,4.10
2009,04,27,02,03,4.10
2009,04,27,02,04,4.10
2009,04,27,02,05,4.10
2009,04,27,02,06,4.10
2009,04,27,02,07,4.10
2009,04,27,02,08,4.10
2009,04,27,02,09,4.10
2009,04,27,02,10,4.10
2009,04,27,02,11,4.10
2009,04,27,02,12,4.00
2009,04,27,02,13,4.00
2009,04,27,02,14,4.00
2009,04,27,02,15,4.00
2009,04,27,02,16,4.00
2009,04,27,02,17,4.00
2009,04,27,02,18,4.00
2009,04,27,02,19,4.00
2009,04,27,02,20,4.00
2009,04,27,02,21,4.00
2009,04,27,02,22,4.00
2009,04,27,02,23,4.00
2009,04,27,02,24,4.00
2009,04,27,02,25,3.90
2009,04,27,02,26,3.90
2009,04,27,02,27,3.90
2009,04,27,02,28,3.90
2009,04,27,02,29,3.90
2009,04,27,02,30,3.90
2009,04,27,02,31,3.90
2009,04,27,02,32,3.90
2009,04,27,02,33,3.90
2009,04,27,02,34,3.90
2009,04,27,02,35,3.90
2009,04,27,02,36,3.90
2009,04,27,02,37,3.90
2009,04,27,02,38,3.90
2009,04,27,02,39,3.90
2009,04,27,02,40,3.90
2009,04,27,02,41,3.90
2009,04,27,02,42,3.90
2009,04,27,02,43,3.90
2009,04,27,02,44,3.90
2009,04,27,02,45,3.90
2009,04,27,02,46,3.80
2009,04,27,02,47,3.80
2009,04,27,02,48,3.80
2009,04,27,02,49,3.80
2009,04,27,02,50,3.80
2009,04,27,02,51,3.80
2009,04,27,02,52,3.80
2009,04,27,02,53,3.80
2009,04,27,02,54,3.80
2009,04,27,02,55,3.80
2009,04,27,02,56,3.80
2009,04,27,02,57,3.80
2009,04,27,02,58,3.80
2009,04,27,02,59,3.80
2009,04,27,03,00,3.80
2009,04,27,03,01,3.80
2009,04,27,03,02,3.80
2009,04,27,03,03,3.80
2009,04,27,03,04,3.80
2009,04,27,03,05,3.80
2009,04,27,03,06,3.80
2009,04,27,03,07,3.80
2009,04,27,03,08,3.80
2009,04,27,03,09,3.80
2009,04,27,03,10,3.80
2009,04,27,03,11,3.80
2009,04,27,03,12,3.80
2009,04,27,03,13,3.80
2009,04,27,03,14,3.80
2009,04,27,03,15,3.80
2009,04,27,03,16,3.80
2009,04,27,03,17,3.80
2009,04,27,03,18,3.80
2009,04,27,03,19,3.80
2009,04,27,03,20,3.80
2009,04,27,03,21,3.80
2009,04,27,03,22,3.80
2009,04,27,03,23,3.80
2009,04,27,03,24,3.80
2009,04,27,03,25,3.80
2009,04,27,03,26,3.80
2009,04,27,03,27,3.80
2009,04,27,03,28,3.70
2009,04,27,03,29,3.70
2009,04,27,03,30,3.80
2009,04,27,03,31,3.70
2009,04,27,03,32,3.70
2009,04,27,03,33,3.70
2009,04,27,03,34,3.70
2009,04,27,03,35,3.70
2009,04,27,03,36,3.70
2009,04,27,03,37,3.70
2009,04,27,03,38,3.70
2009,04,27,03,39,3.70
2009,04,27,03,40,3.70
2009,04,27,03,41,3.70
2009,04,27,03,42,3.70
2009,04,27,03,43,3.70
2009,04,27,03,44,3.70
2009,04,27,03,45,3.70
2009,04,27,03,46,3.70
2009,04,27,03,47,3.70
2009,04,27,03,48,3.70
2009,04,27,03,49,3.70
2009,04,27,03,50,3.70
2009,04,27,03,51,3.70
2009,04,27,03,52,3.70
2009,04,27,03,53,3.70
2009,04,27,03,54,3.60
2009,04,27,03,55,3.60
2009,04,27,03,56,3.60
2009,04,27,03,57,3.60
2009,04,27,03,58,3.60
2009,04,27,03,59,3.60
2009,04,27,04,00,3.60
2009,04,27,04,01,3.60
2009,04,27,04,02,3.60
2009,04,27,04,03,3.60
2009,04,27,04,04,3.60
2009,04,27,04,05,3.60
2009,04,27,04,06,3.60
2009,04,27,04,07,3.60
2009,04,27,04,08,3.60
2009,04,27,04,09,3.60
2009,04,27,04,10,3.60
2009,04,27,04,11,3.60
2009,04,27,04,12,3.60
2009,04,27,04,13,3.60
2009,04,27,04,14,3.60
2009,04,27,04,15,3.60
2009,04,27,04,16,3.60
2009,04,27,04,17,3.60
2009,04,27,04,18,3.60
2009,04,27,04,19,3.60
2009,04,27,04,20,3.60
2009,04,27,04,21,3.60
2009,04,27,04,22,3.60
2009,04,27,04,23,3.60
2009,04,27,04,24,3.60
2009,04,27,04,25,3.60
2009,04,27,04,26,3.60
2009,04,27,04,27,3.60
2009,04,27,04,28,3.60
2009,04,27,04,29,3.50
2009,04,27,04,30,3.50
2009,04,27,04,31,3.50
2009,04,27,04,32,3.50
2009,04,27,04,33,3.50
2009,04,27,04,34,3.50
2009,04,27,04,35,3.50
2009,04,27,04,36,3.40
2009,04,27,04,37,3.40
2009,04,27,04,38,3.40
2009,04,27,04,39,3.40
2009,04,27,04,40,3.40
2009,04,27,04,41,3.40
2009,04,27,04,42,3.40
2009,04,27,04,43,3.40
2009,04,27,04,44,3.40
2009,04,27,04,45,3.40
2009,04,27,04,46,3.40
2009,04,27,04,47,3.40
2009,04,27,04,48,3.40
2009,04,27,04,49,3.30
2009,04,27,04,50,3.30
2009,04,27,04,51,3.30
2009,04,27,04,52,3.30
2009,04,27,04,53,3.30
2009,04,27,04,54,3.30
2009,04,27,04,55,3.30
2009,04,27,04,56,3.30
2009,04,27,04,57,3.30
2009,04,27,04,58,3.30
2009,04,27,04,59,3.30
2009,04,27,05,00,3.30
2009,04,27,05,01,3.30
2009,04,27,05,02,3.30
2009,04,27,05,03,3.30
2009,04,27,05,04,3.30
2009,04,27,05,05,3.30
2009,04,27,05,06,3.30
2009,04,27,05,07,3.30
2009,04,27,05,08,3.30
2009,04,27,05,09,3.30
2009,04,27,05,10,3.30
2009,04,27,05,11,3.30
2009,04,27,05,12,3.30
2009,04,27,05,13,3.30
2009,04,27,05,14,3.20
2009,04,27,05,15,3.30
2009,04,27,05,16,3.20
2009,04,27,05,17,3.30
2009,04,27,05,18,3.20
2009,04,27,05,19,3.20
2009,04,27,05,20,3.20
2009,04,27,05,21,3.20
2009,04,27,05,22,3.20
2009,04,27,05,23,3.20
2009,04,27,05,24,3.20
2009,04,27,05,25,3.20
2009,04,27,05,26,3.20
2009,04,27,05,27,3.20
2009,04,27,05,28,3.20
2009,04,27,05,29,3.20
2009,04,27,05,30,3.20
2009,04,27,05,31,3.20
2009,04,27,05,32,3.20
2009,04,27,05,33,3.20
2009,04,27,05,34,3.20
2009,04,27,05,35,3.20
2009,04,27,05,36,3.20
2009,04,27,05,37,3.20
2009,04,27,05,38,3.20
2009,04,27,05,39,3.20
2009,04,27,05,40,3.20
2009,04,27,05,41,3.20
2009,04,27,05,42,3.20
2009,04,27,05,43,3.20
2009,04,27,05,44,3.30
2009,04,27,05,45,3.30
2009,04,27,05,46,3.30
2009,04,27,05,47,3.20
2009,04,27,05,48,3.20
2009,04,27,05,49,3.20
2009,04,27,05,50,3.20
2009,04,27,05,51,3.20
2009,04,27,05,52,3.20
2009,04,27,05,53,3.20
2009,04,27,05,54,3.20
2009,04,27,05,55,3.20
2009,04,27,05,56,3.20
2009,04,27,05,57,3.20
2009,04,27,05,58,3.20
2009,04,27,05,59,3.20
2009,04,27,06,00,3.20
2009,04,27,06,01,3.20
2009,04,27,06,02,3.20
2009,04,27,06,03,3.20
2009,04,27,06,04,3.10
2009,04,27,06,05,3.10
2009,04,27,06,06,3.10
2009,04,27,06,07,3.10
2009,04,27,06,08,3.10
2009,04,27,06,09,3.10
2009,04,27,06,10,3.10
2009,04,27,06,11,3.10
2009,04,27,06,12,3.10
2009,04,27,06,13,3.10
2009,04,27,06,14,3.10
2009,04,27,06,15,3.10
2009,04,27,06,16,3.10
2009,04,27,06,17,3.10
2009,04,27,06,18,3.10
2009,04,27,06,19,3.10
2009,04,27,06,20,3.20
2009,04,27,06,21,3.20
2009,04,27,06,22,3.20
2009,04,27,06,23,3.20
2009,04,27,06,24,3.20
2009,04,27,06,25,3.20
2009,04,27,06,26,3.20
2009,04,27,06,27,3.20
2009,04,27,06,28,3.20
2009,04,27,06,29,3.20
2009,04,27,06,30,3.20
2009,04,27,06,31,3.20
2009,04,27,06,32,3.20
2009,04,27,06,33,3.20
2009,04,27,06,34,3.20
2009,04,27,06,35,3.20
2009,04,27,06,36,3.20
2009,04,27,06,37,3.20
2009,04,27,06,38,3.20
2009,04,27,06,39,3.20
2009,04,27,06,40,3.20
2009,04,27,06,41,3.20
2009,04,27,06,42,3.20
2009,04,27,06,43,3.20
2009,04,27,06,44,3.20
2009,04,27,06,45,3.20
2009,04,27,06,46,3.20
2009,04,27,06,47,3.20
2009,04,27,06,48,3.20
2009,04,27,06,49,3.20
2009,04,27,06,50,3.20
2009,04,27,06,51,3.20
2009,04,27,06,52,3.20
2009,04,27,06,53,3.20
2009,04,27,06,54,3.20
2009,04,27,06,55,3.20
2009,04,27,06,56,3.20
2009,04,27,06,57,3.20
2009,04,27,06,58,3.30
2009,04,27,06,59,3.30
2009,04,27,07,00,3.30
2009,04,27,07,01,3.30
2009,04,27,07,02,3.30
2009,04,27,07,03,3.30
2009,04,27,07,04,3.30
2009,04,27,07,05,3.30
2009,04,27,07,06,3.30
2009,04,27,07,07,3.30
2009,04,27,07,08,3.30
2009,04,27,07,09,3.30
2009,04,27,07,10,3.30
2009,04,27,07,11,3.30
2009,04,27,07,12,3.30
2009,04,27,07,13,3.30
2009,04,27,07,14,3.40
2009,04,27,07,15,3.40
2009,04,27,07,16,3.40
2009,04,27,07,17,3.40
2009,04,27,07,18,3.40
2009,04,27,07,19,3.40
2009,04,27,07,20,3.40
2009,04,27,07,21,3.40
2009,04,27,07,22,3.40
2009,04,27,07,23,3.40
2009,04,27,07,24,3.40
2009,04,27,07,25,3.40
2009,04,27,07,26,3.50
2009,04,27,07,27,3.50
2009,04,27,07,28,3.50
2009,04,27,07,29,3.50
2009,04,27,07,30,3.50
2009,04,27,07,31,3.50
2009,04,27,07,32,3.50
2009,04,27,07,33,3.50
2009,04,27,07,34,3.50
2009,04,27,07,35,3.60
2009,04,27,07,36,3.60
2009,04,27,07,37,3.60
2009,04,27,07,38,3.60
2009,04,27,07,39,3.60
2009,04,27,07,40,3.60
2009,04,27,07,41,3.60
2009,04,27,07,42,3.70
2009,04,27,07,43,3.70
2009,04,27,07,44,3.70
2009,04,27,07,45,3.70
2009,04,27,07,46,3.80
2009,04,27,07,47,3.80
2009,04,27,07,48,3.80
2009,04,27,07,49,3.80
2009,04,27,07,50,3.80
2009,04,27,07,51,3.80
2009,04,27,07,52,3.80
2009,04,27,07,53,3.90
2009,04,27,07,54,3.90
2009,04,27,07,55,3.90
2009,04,27,07,56,3.90
2009,04,27,07,57,3.90
2009,04,27,07,58,3.90
2009,04,27,07,59,4.00
2009,04,27,08,00,4.00
2009,04,27,08,01,4.00
2009,04,27,08,02,4.10
2009,04,27,08,03,4.10
2009,04,27,08,04,4.10
2009,04,27,08,05,4.10
2009,04,27,08,06,4.20
2009,04,27,08,07,4.20
2009,04,27,08,08,4.20
2009,04,27,08,09,4.30
2009,04,27,08,10,4.30
2009,04,27,08,11,4.30
2009,04,27,08,12,4.30
2009,04,27,08,13,4.40
2009,04,27,08,14,4.40
2009,04,27,08,15,4.40
2009,04,27,08,16,4.40
2009,04,27,08,17,4.50
2009,04,27,08,18,4.50
2009,04,27,08,19,4.60
2009,04,27,08,20,4.60
2009,04,27,08,21,4.60
2009,04,27,08,22,4.70
2009,04,27,08,23,4.70
2009,04,27,08,24,4.70
2009,04,27,08,25,4.70
2009,04,27,08,26,4.80
2009,04,27,08,27,4.80
2009,04,27,08,28,4.80
2009,04,27,08,29,4.90
2009,04,27,08,30,4.90
2009,04,27,08,31,5.00
2009,04,27,08,32,5.00
2009,04,27,08,33,5.10
2009,04,27,08,34,5.10
2009,04,27,08,35,5.20
2009,04,27,08,36,5.20
2009,04,27,08,37,5.30
2009,04,27,08,38,5.30
2009,04,27,08,39,5.30
2009,04,27,08,40,5.40
2009,04,27,08,41,5.40
2009,04,27,08,42,5.40
2009,04,27,08,43,5.50
2009,04,27,08,44,5.50
2009,04,27,08,45,5.60
2009,04,27,08,46,5.60
2009,04,27,08,47,5.60
2009,04,27,08,48,5.70
2009,04,27,08,49,5.70
2009,04,27,08,50,5.80
2009,04,27,08,51,5.80
2009,04,27,08,52,5.90
2009,04,27,08,53,5.90
2009,04,27,08,54,6.00
2009,04,27,08,55,6.10
2009,04,27,08,56,6.20
2009,04,27,08,57,6.30
2009,04,27,08,58,6.40
2009,04,27,08,59,6.40
2009,04,27,09,00,6.50
2009,04,27,09,01,6.60
2009,04,27,09,02,6.70
2009,04,27,09,03,6.90
2009,04,27,09,04,7.00
2009,04,27,09,05,7.10
2009,04,27,09,06,7.20
2009,04,27,09,07,7.30
2009,04,27,09,08,7.50
2009,04,27,09,09,7.60
2009,04,27,09,10,7.70
2009,04,27,09,11,7.80
2009,04,27,09,12,7.90
2009,04,27,09,13,8.00
2009,04,27,09,14,8.10
2009,04,27,09,15,8.30
2009,04,27,09,16,8.30
2009,04,27,09,17,8.50
2009,04,27,09,18,8.60
2009,04,27,09,19,8.70
2009,04,27,09,20,8.80
2009,04,27,09,21,8.90
2009,04,27,09,22,9.00
2009,04,27,09,23,9.10
2009,04,27,09,24,9.20
2009,04,27,09,25,9.20
2009,04,27,09,26,9.30
2009,04,27,09,27,9.40
2009,04,27,09,28,9.40
2009,04,27,09,29,9.50
2009,04,27,09,30,9.60
2009,04,27,09,31,9.70
2009,04,27,09,32,9.70
2009,04,27,09,33,9.80
2009,04,27,09,34,9.90
2009,04,27,09,35,10.00
2009,04,27,09,36,10.00
2009,04,27,09,37,10.00
2009,04,27,09,38,10.00
2009,04,27,09,39,10.00
2009,04,27,09,40,10.00
2009,04,27,09,41,10.00
2009,04,27,09,42,10.00
2009,04,27,09,43,10.10
2009,04,27,09,44,10.10
2009,04,27,09,45,10.00
2009,04,27,09,46,10.00
2009,04,27,09,47,10.00
2009,04,27,09,48,10.10
2009,04,27,09,49,10.10
2009,04,27,09,50,10.10
2009,04,27,09,51,10.10
2009,04,27,09,52,10.10
2009,04,27,09,53,10.10
2009,04,27,09,54,10.10
2009,04,27,09,55,10.20
2009,04,27,09,56,10.20
2009,04,27,09,57,10.20
2009,04,27,09,58,10.30
2009,04,27,09,59,10.30
2009,04,27,10,00,10.30
2009,04,27,10,01,10.40
2009,04,27,10,02,10.50
2009,04,27,10,03,10.60
2009,04,27,10,04,10.60
2009,04,27,10,05,10.70
2009,04,27,10,06,10.70
2009,04,27,10,07,10.80
2009,04,27,10,08,10.80
2009,04,27,10,09,10.90
2009,04,27,10,10,10.90
2009,04,27,10,11,10.90
2009,04,27,10,12,10.90
2009,04,27,10,13,10.90
2009,04,27,10,14,10.90
2009,04,27,10,15,11.00
2009,04,27,10,16,11.00
2009,04,27,10,17,11.00
2009,04,27,10,18,11.00
2009,04,27,10,19,11.00
2009,04,27,10,20,11.10
2009,04,27,10,21,11.10
2009,04,27,10,22,11.10
2009,04,27,10,23,11.20
2009,04,27,10,24,11.20
2009,04,27,10,25,11.20
2009,04,27,10,26,11.20
2009,04,27,10,27,11.20
2009,04,27,10,28,11.30
2009,04,27,10,29,11.30
2009,04,27,10,30,11.30
2009,04,27,10,31,11.40
2009,04,27,10,32,11.40
2009,04,27,10,33,11.40
2009,04,27,10,34,11.50
2009,04,27,10,35,11.50
2009,04,27,10,36,11.60
2009,04,27,10,37,11.60
2009,04,27,10,38,11.60
2009,04,27,10,39,11.70
2009,04,27,10,40,11.70
2009,04,27,10,41,11.80
2009,04,27,10,42,11.80
2009,04,27,10,43,11.80
2009,04,27,10,44,11.90
2009,04,27,10,45,11.90
2009,04,27,10,46,12.00
2009,04,27,10,47,12.10
2009,04,27,10,48,12.10
2009,04,27,10,49,12.20
2009,04,27,10,50,12.30
2009,04,27,10,51,12.40
2009,04,27,10,52,12.40
2009,04,27,10,53,12.50
2009,04,27,10,54,12.60
2009,04,27,10,55,12.60
2009,04,27,10,56,12.70
2009,04,27,10,57,12.70
2009,04,27,10,58,12.80
2009,04,27,10,59,12.90
2009,04,27,11,00,12.90
2009,04,27,11,01,13.00
2009,04,27,11,02,13.10
2009,04,27,11,03,13.10
2009,04,27,11,04,13.20
2009,04,27,11,05,13.30
2009,04,27,11,06,13.30
2009,04,27,11,07,13.30
2009,04,27,11,08,13.30
2009,04,27,11,09,13.40
2009,04,27,11,10,13.40
2009,04,27,11,11,13.40
2009,04,27,11,12,13.50
2009,04,27,11,13,13.60
2009,04,27,11,14,13.60
2009,04,27,11,15,13.60
2009,04,27,11,16,13.70
2009,04,27,11,17,13.80
2009,04,27,11,18,13.80
2009,04,27,11,19,13.90
2009,04,27,11,20,14.00
2009,04,27,11,21,14.10
2009,04,27,11,22,14.10
2009,04,27,11,23,14.10
2009,04,27,11,24,14.20
2009,04,27,11,25,14.20
2009,04,27,11,26,14.20
2009,04,27,11,27,14.20
2009,04,27,11,28,14.20
2009,04,27,11,29,14.10
2009,04,27,11,30,14.10
2009,04,27,11,31,14.10
2009,04,27,11,32,14.20
2009,04,27,11,33,14.20
2009,04,27,11,34,14.20
2009,04,27,11,35,14.20
2009,04,27,11,36,14.20
2009,04,27,11,37,14.20
2009,04,27,11,38,14.20
2009,04,27,11,39,14.20
2009,04,27,11,40,14.20
2009,04,27,11,41,14.20
2009,04,27,11,42,14.20
2009,04,27,11,43,14.30
2009,04,27,11,44,14.30
2009,04,27,11,45,14.30
2009,04,27,11,46,14.30
2009,04,27,11,47,14.40
2009,04,27,11,48,14.40
2009,04,27,11,49,14.50
2009,04,27,11,50,14.50
2009,04,27,11,51,14.60
2009,04,27,11,52,14.70
2009,04,27,11,53,14.70
2009,04,27,11,54,14.70
2009,04,27,11,55,14.80
2009,04,27,11,56,14.80
2009,04,27,11,57,14.90
2009,04,27,11,58,15.00
2009,04,27,11,59,15.00
2009,04,27,12,00,15.00
2009,04,27,12,01,15.00
2009,04,27,12,02,15.00
2009,04,27,12,03,15.00
2009,04,27,12,04,15.00
2009,04,27,12,05,14.90
2009,04,27,12,06,14.90
2009,04,27,12,07,14.90
2009,04,27,12,08,14.90
2009,04,27,12,09,14.90
2009,04,27,12,10,15.00
2009,04,27,12,11,15.00
2009,04,27,12,12,15.00
2009,04,27,12,13,14.90
2009,04,27,12,14,14.90
2009,04,27,12,15,14.90
2009,04,27,12,16,14.90
2009,04,27,12,17,14.90
2009,04,27,12,18,14.90
2009,04,27,12,19,14.90
2009,04,27,12,20,14.90
2009,04,27,12,21,14.90
2009,04,27,12,22,15.00
2009,04,27,12,23,15.00
2009,04,27,12,24,15.00
2009,04,27,12,25,15.00
2009,04,27,12,26,15.00
2009,04,27,12,27,15.00
2009,04,27,12,28,15.00
2009,04,27,12,29,15.00
2009,04,27,12,30,15.00
2009,04,27,12,31,15.10
2009,04,27,12,32,15.10
2009,04,27,12,33,15.10
2009,04,27,12,34,15.00
2009,04,27,12,35,15.10
2009,04,27,12,36,15.10
2009,04,27,12,37,15.10
2009,04,27,12,38,15.10
2009,04,27,12,39,15.10
2009,04,27,12,40,15.10
2009,04,27,12,41,15.10
2009,04,27,12,42,15.10
2009,04,27,12,43,15.10
2009,04,27,12,44,15.10
2009,04,27,12,45,15.10
2009,04,27,12,46,15.10
2009,04,27,12,47,15.10
2009,04,27,12,48,15.10
2009,04,27,12,49,15.10
2009,04,27,12,50,15.10
2009,04,27,12,51,15.10
2009,04,27,12,52,15.00
2009,04,27,12,53,15.00
2009,04,27,12,54,15.00
2009,04,27,12,55,15.00
2009,04,27,12,56,15.00
2009,04,27,12,57,15.00
2009,04,27,12,58,15.00
2009,04,27,12,59,15.00
2009,04,27,13,00,15.00
2009,04,27,13,01,15.00
2009,04,27,13,02,15.00
2009,04,27,13,03,15.00
2009,04,27,13,04,15.00
2009,04,27,13,05,15.00
2009,04,27,13,06,15.00
2009,04,27,13,07,15.00
2009,04,27,13,08,15.00
2009,04,27,13,09,15.00
2009,04,27,13,10,15.00
2009,04,27,13,11,15.10
2009,04,27,13,12,15.10
2009,04,27,13,13,15.10
2009,04,27,13,14,15.10
2009,04,27,13,15,15.20
2009,04,27,13,16,15.20
2009,04,27,13,17,15.20
2009,04,27,13,18,15.20
2009,04,27,13,19,15.30
2009,04,27,13,20,15.30
2009,04,27,13,21,15.40
2009,04,27,13,22,15.50
2009,04,27,13,23,15.50
2009,04,27,13,24,15.60
2009,04,27,13,25,15.70
2009,04,27,13,26,15.70
2009,04,27,13,27,15.70
2009,04,27,13,28,15.70
2009,04,27,13,29,15.80
2009,04,27,13,30,15.80
2009,04,27,13,31,15.80
2009,04,27,13,32,15.80
2009,04,27,13,33,15.80
2009,04,27,13,34,15.80
2009,04,27,13,35,15.80
2009,04,27,13,36,15.80
2009,04,27,13,37,15.80
2009,04,27,13,38,15.80
2009,04,27,13,39,15.80
2009,04,27,13,40,15.80
2009,04,27,13,41,15.90
2009,04,27,13,42,15.90
2009,04,27,13,43,16.00
2009,04,27,13,44,16.00
2009,04,27,13,45,16.00
2009,04,27,13,46,16.00
2009,04,27,13,47,16.10
2009,04,27,13,48,16.10
2009,04,27,13,49,16.20
2009,04,27,13,50,16.30
2009,04,27,13,51,16.30
2009,04,27,13,52,16.40
2009,04,27,13,53,16.40
2009,04,27,13,54,16.40
2009,04,27,13,55,16.40
2009,04,27,13,56,16.40
2009,04,27,13,57,16.40
2009,04,27,13,58,16.40
2009,04,27,13,59,16.40
2009,04,27,14,00,16.50
2009,04,27,14,01,16.50
2009,04,27,14,02,16.50
2009,04,27,14,03,16.60
2009,04,27,14,04,16.70
2009,04,27,14,05,16.80
2009,04,27,14,06,16.80
2009,04,27,14,07,16.70
2009,04,27,14,08,16.70
2009,04,27,14,09,16.70
2009,04,27,14,10,16.80
2009,04,27,14,11,16.80
2009,04,27,14,12,16.80
2009,04,27,14,13,16.80
2009,04,27,14,14,16.80
2009,04,27,14,15,16.80
2009,04,27,14,16,16.80
2009,04,27,14,17,16.80
2009,04,27,14,18,16.90
2009,04,27,14,19,16.90
2009,04,27,14,20,16.90
2009,04,27,14,21,16.90
2009,04,27,14,22,16.90
2009,04,27,14,23,16.90
2009,04,27,14,24,16.90
2009,04,27,14,25,16.90
2009,04,27,14,26,16.90
2009,04,27,14,27,16.90
2009,04,27,14,28,17.00
2009,04,27,14,29,17.00
2009,04,27,14,30,17.10
2009,04,27,14,31,17.10
2009,04,27,14,32,17.20
2009,04,27,14,33,17.30
2009,04,27,14,34,17.30
2009,04,27,14,35,17.40
2009,04,27,14,36,17.50
2009,04,27,14,37,17.50
2009,04,27,14,38,17.50
2009,04,27,14,39,17.60
2009,04,27,14,40,17.70
2009,04,27,14,41,17.70
2009,04,27,14,42,17.60
2009,04,27,14,43,17.60
2009,04,27,14,44,17.60
2009,04,27,14,45,17.60
2009,04,27,14,46,17.50
2009,04,27,14,47,17.50
2009,04,27,14,48,17.40
2009,04,27,14,49,17.40
2009,04,27,14,50,17.40
2009,04,27,14,51,17.30
2009,04,27,14,52,17.30
2009,04,27,14,53,17.30
2009,04,27,14,54,17.40
2009,04,27,14,55,17.40
2009,04,27,14,56,17.40
2009,04,27,14,57,17.50
2009,04,27,14,58,17.60
2009,04,27,14,59,17.60
2009,04,27,15,00,17.60
2009,04,27,15,01,17.60
2009,04,27,15,02,17.60
2009,04,27,15,03,17.60
2009,04,27,15,04,17.60
2009,04,27,15,05,17.50
2009,04,27,15,06,17.50
2009,04,27,15,07,17.40
2009,04,27,15,08,17.30
2009,04,27,15,09,17.30
2009,04,27,15,10,17.30
2009,04,27,15,11,17.30
2009,04,27,15,12,17.40
2009,04,27,15,13,17.40
2009,04,27,15,14,17.50
2009,04,27,15,15,17.60
2009,04,27,15,16,17.70
2009,04,27,15,17,17.70
2009,04,27,15,18,17.70
2009,04,27,15,19,17.60
2009,04,27,15,20,17.50
2009,04,27,15,21,17.30
2009,04,27,15,22,17.30
2009,04,27,15,23,17.30
2009,04,27,15,24,17.30
2009,04,27,15,25,17.30
2009,04,27,15,26,17.40
2009,04,27,15,27,17.40
2009,04,27,15,28,17.40
2009,04,27,15,29,17.50
2009,04,27,15,30,17.50
2009,04,27,15,31,17.60
2009,04,27,15,32,17.60
2009,04,27,15,33,17.70
2009,04,27,15,34,17.70
2009,04,27,15,35,17.70
2009,04,27,15,36,17.60
2009,04,27,15,37,17.60
2009,04,27,15,38,17.60
2009,04,27,15,39,17.60
2009,04,27,15,40,17.70
2009,04,27,15,41,17.70
2009,04,27,15,42,17.70
2009,04,27,15,43,17.70
2009,04,27,15,44,17.70
2009,04,27,15,45,17.80
2009,04,27,15,46,17.80
2009,04,27,15,47,17.90
2009,04,27,15,48,17.90
2009,04,27,15,49,17.90
2009,04,27,15,50,17.80
2009,04,27,15,51,17.70
2009,04,27,15,52,17.60
2009,04,27,15,53,17.40
2009,04,27,15,54,17.40
2009,04,27,15,55,17.40
2009,04,27,15,56,17.40
2009,04,27,15,57,17.40
2009,04,27,15,58,17.50
2009,04,27,15,59,17.50
2009,04,27,16,00,17.40
2009,04,27,16,01,17.40
2009,04,27,16,02,17.40
2009,04,27,16,03,17.40
2009,04,27,16,04,17.40
2009,04,27,16,05,17.40
2009,04,27,16,06,17.40
2009,04,27,16,07,17.40
2009,04,27,16,08,17.30
2009,04,27,16,09,17.00
2009,04,27,16,10,16.90
2009,04,27,16,11,16.90
2009,04,27,16,12,16.80
2009,04,27,16,13,16.80
2009,04,27,16,14,16.80
2009,04,27,16,15,16.80
2009,04,27,16,16,16.80
2009,04,27,16,17,16.80
2009,04,27,16,18,16.80
2009,04,27,16,19,16.70
2009,04,27,16,20,16.70
2009,04,27,16,21,16.70
2009,04,27,16,22,16.70
2009,04,27,16,23,16.70
2009,04,27,16,24,16.70
2009,04,27,16,25,16.70
2009,04,27,16,26,16.80
2009,04,27,16,27,16.80
2009,04,27,16,28,16.80
2009,04,27,16,29,16.80
2009,04,27,16,30,16.80
2009,04,27,16,31,16.90
2009,04,27,16,32,16.90
2009,04,27,16,33,17.00
2009,04,27,16,34,17.10
2009,04,27,16,35,17.10
2009,04,27,16,36,17.20
2009,04,27,16,37,17.20
2009,04,27,16,38,17.20
2009,04,27,16,39,17.30
2009,04,27,16,40,17.30
2009,04,27,16,41,17.40
2009,04,27,16,42,17.40
2009,04,27,16,43,17.50
2009,04,27,16,44,17.50
2009,04,27,16,45,17.60
2009,04,27,16,46,17.70
2009,04,27,16,47,17.70
2009,04,27,16,48,17.80
2009,04,27,16,49,17.80
2009,04,27,16,50,17.80
2009,04,27,16,51,17.70
2009,04,27,16,52,17.50
2009,04,27,16,53,17.50
2009,04,27,16,54,17.50
2009,04,27,16,55,17.50
2009,04,27,16,56,17.50
2009,04,27,16,57,17.50
2009,04,27,16,58,17.50
2009,04,27,16,59,17.40
2009,04,27,17,00,17.40
2009,04,27,17,01,17.40
2009,04,27,17,02,17.40
2009,04,27,17,03,17.40
2009,04,27,17,04,17.40
2009,04,27,17,05,17.50
2009,04,27,17,06,17.50
2009,04,27,17,07,17.60
2009,04,27,17,08,17.50
2009,04,27,17,09,17.50
2009,04,27,17,10,17.40
2009,04,27,17,11,17.40
2009,04,27,17,12,17.40
2009,04,27,17,13,17.40
2009,04,27,17,14,17.30
2009,04,27,17,15,17.30
2009,04,27,17,16,17.40
2009,04,27,17,17,17.40
2009,04,27,17,18,17.40
2009,04,27,17,19,17.30
2009,04,27,17,20,17.30
2009,04,27,17,21,17.30
2009,04,27,17,22,17.20
2009,04,27,17,23,17.10
2009,04,27,17,24,17.00
2009,04,27,17,25,17.00
2009,04,27,17,26,16.90
2009,04,27,17,27,16.90
2009,04,27,17,28,16.90
2009,04,27,17,29,16.90
2009,04,27,17,30,16.90
2009,04,27,17,31,16.90
2009,04,27,17,32,16.80
2009,04,27,17,33,16.80
2009,04,27,17,34,16.80
2009,04,27,17,35,16.80
2009,04,27,17,36,16.90
2009,04,27,17,37,16.90
2009,04,27,17,38,16.90
2009,04,27,17,39,16.90
2009,04,27,17,40,16.90
2009,04,27,17,41,16.90
2009,04,27,17,42,17.00
2009,04,27,17,43,17.00
2009,04,27,17,44,17.10